Location: Batang Balui
(2.7000°N, 113.7833°E)
Time: 23:55:54
(UTC+00:00)

Cosmos 2026 Rocket - Pass Details

Date: 03 December 2021
Orbit: 939 x 1001 km, 82.9° (Epoch: 27 January)

Event Time Altitude Azimuth Distance (km) Brightness Sun altitude
Rises 10:30:33 0° 360° (N) 3,593 6.7 -4.7°
Reaches altitude 10° 10:33:02 10° 1° (N) 2,647 6.1 -5.3°
Maximum altitude 10:39:04 77° 87° (E) 964 3.9 -6.6°
Drops below altitude 10° 10:45:06 10° 172° (S) 2,653 6.5 -8.0°
Sets 10:47:35 0° 174° (S) 3,603 7.2 -8.6°
